GFSFLT2_sfc_rhum_024.txt.gz
RH
95 92 91 90 90 89 87 82 80 80 80 79 79 81 80 79 79 78 77 76 73 69 70 72 71 72 78 82 75 73 71 76
97 89 91 90 86 89 86 82 82 81 80 81 81 81 80 80 78 76 74 71 69 66 70 70 70 75 77 81 69 72 70 80
90 97 93 92 85 81 83 80 79 79 79 80 82 79 77 77 77 75 71 73 73 68 70 76 79 72 80 75 63 63 71 80
93 96 96 90 68 87 88 74 75 74 72 76 72 75 76 72 79 76 75 73 74 74 81 68 62 60 61 63 57 54 71 79
90 97 86 86 72 84 83 81 81 77 71 74 79 79 85 86 84 87 82 72 65 62 56 55 54 59 60 63 56 56 67 77
86 94 88 85 75 80 77 82 92 95 90 85 86 91 87 84 83 83 74 70 64 65 64 58 54 50 52 51 52 55 58 69
87 84 86 80 81 81 87 92 87 88 88 86 89 90 88 87 80 74 71 66 63 62 61 56 56 51 53 49 49 51 47 60
84 86 79 76 84 88 88 88 90 95 96 95 90 90 86 80 74 70 70 70 66 64 62 63 63 57 54 50 53 50 48 49
88 81 83 80 89 85 90 94 94 95 95 92 88 82 82 77 76 72 70 71 66 67 67 68 67 56 51 50 56 52 52 47
81 72 82 86 88 88 94 92 90 87 87 86 80 77 76 78 70 68 72 73 70 72 73 69 71 65 57 52 57 57 50 48
79 85 85 90 89 94 95 91 86 85 86 78 70 68 73 76 73 74 73 72 74 68 72 72 72 66 55 56 63 62 58 43
81 84 91 91 94 96 97 94 88 86 80 72 62 64 71 72 73 72 70 69 70 69 60 64 69 72 49 51 59 61 59 61
86 90 94 87 93 96 97 91 89 82 70 64 65 66 64 68 73 70 71 69 72 68 69 67 68 74 65 65 65 62 59 60
88 86 91 79 76 96 90 84 76 70 69 67 64 64 61 62 70 72 70 69 69 69 71 75 79 74 69 79 74 67 60 54
91 91 88 85 78 89 80 74 74 71 72 69 66 64 56 57 58 60 62 65 67 74 77 72 75 78 74 71 76 82 75 65
91 88 83 87 88 78 70 63 62 73 74 74 57 47 51 51 54 59 64 69 68 75 74 83 81 83 82 66 71 71 70 71
93 92 94 92 76 69 66 71 77 79 71 50 49 52 54 52 55 61 68 74 76 83 86 87 87 89 86 83 73 70 68 68
97 92 79 77 74 73 71 66 61 55 54 53 55 60 60 53 56 61 65 74 82 83 84 86 88 88 89 84 73 70 68 69
70 62 66 66 66 67 56 48 45 44 48 54 55 53 54 57 59 62 67 76 80 82 86 88 88 90 87 81 79 76 70 68
63 54 57 52 51 51 49 49 52 51 50 52 56 56 56 54 55 58 61 63 77 84 89 91 88 91 86 86 82 74 73 69

GFSFLT2_sfc_rhum_027.txt.gz
RH
98 92 87 89 89 88 86 83 82 84 83 82 82 83 82 80 79 78 77 74 73 72 73 74 79 79 75 76 78 75 77 81
97 97 93 93 82 87 85 83 84 85 85 85 84 83 82 80 79 77 73 69 71 73 75 77 75 80 74 76 80 71 78 86
96 95 98 95 89 84 83 82 83 84 82 81 85 85 83 77 79 74 71 72 73 76 74 76 70 76 76 71 67 71 75 86
94 93 95 92 72 88 84 74 80 80 80 79 77 81 82 77 80 75 77 79 75 75 70 68 62 62 66 62 60 67 77 82
94 96 97 91 79 90 88 83 81 78 76 76 80 82 89 84 85 86 72 69 61 59 56 55 54 57 58 57 57 62 68 80
86 97 96 93 85 86 85 85 90 94 84 85 90 89 85 83 82 79 70 70 68 67 67 59 57 54 52 52 55 54 56 74
83 93 96 90 84 84 90 97 93 94 92 90 92 89 89 84 77 75 70 68 67 66 62 60 58 55 53 52 53 52 51 58
86 94 95 87 89 94 97 92 93 95 96 94 89 89 82 76 75 72 75 70 68 68 67 67 64 56 51 56 53 57 51 52
92 96 87 90 92 92 92 96 96 97 97 91 86 83 80 78 75 75 76 72 69 69 70 69 66 54 52 52 59 57 51 50
92 80 88 94 92 94 96 93 94 95 97 94 85 76 78 74 74 78 76 73 72 73 71 70 70 64 60 60 65 59 54 50
86 90 91 93 90 94 94 89 86 87 87 82 76 76 72 74 77 78 74 72 74 66 71 70 70 68 58 63 65 64 60 46
90 90 94 92 95 97 97 93 90 89 80 73 68 76 73 76 76 77 74 71 70 67 63 68 76 77 51 56 66 64 63 64
92 94 94 89 94 96 98 96 95 88 78 68 72 72 70 73 75 74 73 72 73 70 73 69 77 76 67 68 72 66 62 61
93 90 93 84 82 96 94 91 88 76 74 72 71 70 68 70 76 75 72 72 70 74 74 78 82 80 74 80 75 68 65 58
91 90 90 84 88 94 90 80 75 74 75 75 72 70 64 62 62 64 65 66 69 75 80 75 78 82 77 73 80 82 78 67
90 90 91 88 88 88 82 85 69 76 76 78 56 58 58 55 59 67 72 75 73 79 80 87 83 83 85 68 72 73 74 74
95 94 94 90 92 94 92 88 81 81 77 58 57 62 57 56 62 67 72 78 82 83 86 87 89 89 88 86 81 77 73 72
98 95 95 96 88 93 89 78 79 69 60 59 65 64 64 60 57 63 64 71 82 83 87 86 89 90 92 90 79 73 73 76
97 97 93 91 82 88 80 72 67 58 52 58 62 62 61 60 55 59 62 74 82 83 83 88 90 91 89 88 84 81 76 74
95 90 84 80 78 74 62 58 60 50 49 58 59 56 58 55 57 57 59 62 79 86 88 93 91 92 90 91 86 84 78 76

GFSFLT2_sfc_rhum_033.txt.gz
RH
98 95 91 88 89 88 89 88 86 84 83 84 85 84 82 80 79 77 76 77 80 80 76 77 80 80 80 82 83 80 47 45
97 96 96 89 87 88 91 91 90 89 88 86 85 83 82 81 79 77 77 77 78 82 79 79 80 80 74 73 75 72 50 47
95 91 94 88 84 81 85 88 88 87 82 86 78 52 55 54 72 76 79 82 81 80 76 77 76 73 71 71 65 44 46 46
95 94 95 82 67 79 80 78 76 75 65 65 58 64 59 54 69 84 82 78 75 72 68 64 50 36 36 47 33 41 40 43
89 88 91 92 84 76 73 76 73 78 76 70 72 68 64 59 57 49 51 57 39 43 40 36 44 37 38 39 37 35 34 41
93 92 90 87 82 73 76 63 71 76 69 68 70 67 68 63 53 52 52 48 51 46 43 48 46 43 43 43 41 34 30 30
84 85 82 82 82 76 74 68 60 60 60 65 64 66 70 56 57 52 49 47 46 45 42 39 42 41 40 39 38 40 40 32
72 71 76 82 78 74 65 71 68 69 68 69 71 66 66 58 55 50 48 44 44 42 42 39 38 38 42 41 38 35 40 44
74 80 84 81 77 73 79 78 79 72 74 75 71 63 63 61 52 52 50 52 51 48 45 44 39 37 42 40 35 38 39 48
72 71 82 83 77 74 81 80 79 80 82 81 68 60 61 61 54 53 52 50 45 45 44 40 39 39 42 37 36 35 40 48
68 74 82 85 77 76 83 80 76 79 84 78 68 60 57 56 52 56 54 47 50 43 45 42 38 40 38 40 39 35 36 31
68 75 81 84 77 83 77 77 78 80 77 65 63 54 57 57 55 57 50 47 45 43 47 48 46 44 33 41 41 38 34 35
75 81 85 81 80 76 78 84 83 74 63 65 63 55 56 57 52 55 50 46 49 52 48 50 47 50 43 43 42 43 41 34
77 78 82 77 68 69 69 75 77 61 58 64 57 59 54 57 58 52 51 48 53 54 54 51 48 52 42 43 41 42 40 36
77 77 78 76 72 70 71 77 78 65 58 59 57 59 52 54 57 53 50 44 45 54 55 54 49 55 55 41 38 35 45 44
76 77 77 77 75 73 74 72 69 68 67 62 57 60 57 47 46 49 51 49 52 54 56 66 57 50 54 46 53 50 41 41
80 79 79 78 82 82 83 80 78 76 68 68 60 56 50 46 48 53 54 50 60 63 68 64 57 50 47 52 55 49 52 48
84 87 81 83 86 82 82 80 79 76 72 67 57 51 50 50 46 51 53 57 63 64 77 78 58 54 51 54 49 46 42 46
84 88 89 92 88 88 80 78 72 70 70 77 70 55 49 53 51 53 58 67 71 81 74 62 61 58 60 52 52 50 47 48
79 82 83 87 91 86 83 74 71 69 72 78 67 53 45 50 49 53 56 68 69 64 60 61 66 63 64 61 52 54 55 54

GFSFLT2_sfc_rhum_036.txt.gz
RH
96 92 86 86 91 89 89 85 84 84 84 84 85 84 80 78 78 78 79 79 76 78 80 81 76 76 77 82 80 71 31 32
96 93 90 82 82 92 92 91 90 89 89 87 84 82 81 80 79 78 80 82 79 79 83 81 76 74 74 73 74 64 30 29
94 93 88 82 72 88 85 90 89 88 82 83 71 36 37 43 75 84 84 86 82 78 77 78 77 73 69 68 58 28 27 27
96 90 86 85 73 76 74 64 57 58 51 46 38 47 47 40 68 83 82 81 79 72 68 62 50 29 28 43 26 29 26 27
92 93 94 86 80 80 64 58 66 65 70 60 57 53 57 48 50 42 44 54 34 37 36 29 35 30 30 32 29 26 23 22
86 88 87 86 85 63 65 58 60 63 62 64 62 50 50 48 41 42 42 36 40 37 36 41 38 36 35 35 34 27 23 20
87 91 86 84 80 57 59 59 53 51 50 42 39 42 52 45 45 38 38 37 37 37 36 34 36 35 33 32 30 29 27 20
73 67 65 60 53 60 53 53 48 49 47 47 51 44 54 48 46 41 38 36 35 34 34 32 31 32 34 31 28 24 28 31
68 65 56 54 54 48 44 46 47 42 47 62 56 53 58 52 42 42 40 40 41 39 36 34 31 27 29 27 24 29 27 30
56 55 63 67 67 55 44 48 47 44 54 58 58 51 53 51 45 43 40 40 37 35 34 32 28 25 28 24 26 26 30 30
48 55 57 63 63 54 59 55 62 50 67 60 60 51 49 46 43 45 45 38 39 36 34 30 27 25 23 27 29 26 29 22
51 56 61 68 59 58 46 56 61 61 60 55 55 46 49 49 46 50 41 37 38 34 36 31 28 27 18 26 30 29 27 28
53 57 62 69 57 49 48 57 59 59 57 57 57 49 49 50 44 47 40 38 39 41 35 33 32 34 33 32 32 36 36 28
55 54 60 61 50 46 47 55 58 53 51 56 55 52 46 46 47 43 41 40 45 42 36 34 33 35 37 30 31 31 33 33
50 50 53 58 53 46 49 57 66 60 53 52 50 51 44 43 47 44 46 40 39 39 39 42 38 39 43 30 27 29 29 30
48 48 50 54 57 50 56 54 63 68 62 49 51 55 49 42 44 48 45 37 37 37 38 44 44 42 39 31 38 33 24 29
52 50 51 53 59 61 63 62 60 62 57 55 59 60 54 45 48 49 47 37 39 44 49 48 43 44 33 37 39 35 38 36
56 56 53 57 69 82 83 73 68 71 60 58 59 56 58 54 49 50 42 38 45 52 55 53 48 39 33 35 33 34 31 32
56 57 70 70 80 90 85 77 76 78 68 65 68 73 72 66 52 45 40 42 53 50 55 54 48 41 43 36 36 34 31 31
56 60 74 88 92 84 81 77 74 70 63 71 73 73 67 59 48 42 40 62 53 57 48 66 52 45 48 44 35 36 35 36

GFSFLT2_sfc_rhum_042.txt.gz
RH
94 97 90 92 90 89 89 88 88 87 88 88 87 86 84 81 83 84 83 82 82 81 81 80 76 74 68 68 73 73 58 45
97 97 94 92 88 91 90 88 92 90 88 87 86 84 83 82 81 82 81 82 82 82 81 78 74 69 65 61 65 71 43 48
96 97 96 96 90 88 88 90 90 87 83 82 74 63 58 65 84 85 85 86 84 83 81 76 72 67 62 66 64 44 38 56
97 96 95 88 78 84 87 82 74 72 68 69 64 70 68 74 86 87 86 87 85 80 78 76 71 52 53 63 45 42 45 63
95 94 94 89 82 82 84 80 68 71 75 72 72 73 75 81 84 78 79 72 56 62 66 60 56 53 55 52 46 41 43 56
93 91 90 93 92 92 90 89 84 72 73 76 74 77 74 74 74 73 72 64 59 61 67 60 53 47 48 48 44 41 40 57
94 88 88 88 90 93 90 88 81 78 72 73 73 75 80 75 71 66 63 66 64 64 60 56 51 50 47 39 36 38 38 47
92 92 90 86 83 82 88 89 78 79 74 72 71 76 76 72 70 64 65 62 61 60 60 55 53 51 46 37 36 38 39 41
90 91 87 85 85 87 86 77 62 55 59 72 70 63 73 72 66 67 66 64 60 62 54 52 50 40 39 37 41 36 40 38
79 83 85 89 89 87 84 79 54 44 56 72 66 60 71 74 72 68 64 65 62 63 60 56 52 46 46 44 41 38 36 37
73 77 80 81 81 77 66 61 64 58 62 65 73 66 68 73 69 68 66 67 68 62 58 56 54 47 45 46 47 47 42 28
66 70 70 72 75 75 60 61 58 60 62 79 71 66 66 74 77 72 67 68 66 63 58 52 53 54 31 37 54 52 47 49
56 65 72 70 68 68 69 69 65 68 77 71 76 70 68 74 74 75 72 69 66 66 62 55 54 57 61 62 62 57 52 51
62 56 60 65 66 61 62 61 60 60 74 77 74 74 64 69 76 83 73 68 69 67 65 65 62 64 68 68 72 66 60 55
57 59 62 66 60 54 52 57 57 57 62 81 74 74 66 67 73 72 75 74 74 70 69 65 67 69 63 67 69 65 63 63
53 52 51 56 60 61 54 50 54 64 70 66 70 72 72 68 67 74 73 74 72 72 62 64 68 73 73 53 65 62 65 61
55 51 50 56 63 67 68 58 65 74 73 73 72 76 76 79 69 74 76 78 72 72 62 65 68 72 66 64 63 66 68 69
59 56 51 55 64 67 71 74 69 81 82 84 80 83 77 74 67 80 82 80 75 72 69 72 74 74 65 63 59 56 62 67
54 54 54 52 65 70 71 73 78 77 82 86 93 87 87 86 83 84 88 79 76 66 73 78 78 75 64 64 55 54 52 53
50 51 51 52 62 68 70 74 77 82 82 88 87 85 85 86 81 80 75 72 74 69 80 80 76 71 69 65 59 61 56 52

GFSFLT2_sfc_rhum_045.txt.gz
RH
98 96 94 93 94 92 90 88 88 88 88 87 87 88 87 86 86 84 84 84 82 80 79 75 69 69 68 71 75 69 58 59
97 98 99 96 94 93 92 92 92 90 89 88 87 86 87 87 86 84 83 82 81 79 77 71 65 62 62 67 70 68 61 66
95 98 97 97 90 90 90 90 88 86 84 84 80 74 76 79 86 85 85 85 82 79 75 71 67 64 62 65 61 63 69 78
97 96 94 93 88 95 91 83 76 75 71 69 66 78 79 81 85 87 86 84 81 80 76 72 60 54 56 59 49 67 78 88
95 95 94 93 92 81 88 92 81 73 75 76 76 87 84 83 82 83 85 80 72 74 69 58 59 62 54 49 44 55 75 83
94 92 93 94 95 91 92 91 78 79 77 72 76 80 78 79 74 74 69 68 60 64 68 65 55 50 50 44 39 47 73 83
96 94 94 94 91 92 94 92 86 89 78 73 76 70 73 78 78 72 74 73 65 72 62 55 54 46 43 38 41 42 56 64
93 93 92 87 87 84 91 90 88 93 79 74 73 78 75 77 78 73 74 72 71 64 63 59 58 49 40 38 39 43 45 63
94 93 91 90 89 87 86 81 70 54 54 61 68 71 79 78 76 81 72 69 68 66 63 58 55 47 41 40 39 42 41 43
90 88 90 90 87 89 89 90 87 58 50 71 66 67 79 82 81 77 70 70 65 64 60 58 59 52 50 46 47 44 38 37
85 85 86 82 87 86 75 72 75 52 54 63 78 66 76 78 89 89 71 69 72 66 69 63 56 55 47 52 49 50 42 35
79 75 74 73 70 63 57 63 53 53 68 75 82 76 74 83 91 87 72 72 76 73 63 60 58 54 37 41 56 55 52 52
81 80 78 67 71 71 62 69 65 65 75 79 71 76 80 88 92 78 72 75 72 68 65 53 53 63 62 66 67 64 53 54
77 72 72 70 67 64 66 65 66 61 78 83 82 81 85 90 92 88 81 80 77 75 65 66 60 67 68 76 77 66 66 57
70 68 66 69 63 66 70 74 74 76 78 87 79 82 82 84 88 86 89 83 83 74 73 65 66 75 67 70 74 74 74 72
58 61 61 62 66 68 65 65 62 66 78 79 84 82 83 82 82 86 92 87 78 74 69 67 72 73 74 63 70 62 63 60
61 61 56 60 66 69 76 62 65 74 78 87 88 90 86 89 87 88 86 87 81 78 78 77 75 74 69 73 69 62 68 65
60 62 61 61 68 73 80 81 68 87 90 87 94 92 95 95 85 86 87 87 85 84 75 76 79 79 72 72 67 67 66 70
59 59 61 58 60 68 74 81 79 77 79 88 94 93 95 94 91 89 91 89 82 75 78 81 85 79 75 76 63 59 56 58
58 59 59 58 63 67 69 70 70 78 79 86 88 91 89 85 89 91 92 90 84 75 88 89 84 86 76 72 64 63 62 57

GFSFLT2_sfc_rhum_048.txt.gz
RH
98 94 95 97 95 88 91 89 89 90 90 89 89 89 87 84 84 83 82 81 78 75 74 71 70 70 77 79 75 73 72 68
98 99 98 97 96 88 91 94 92 91 91 91 91 91 89 87 85 84 82 79 77 72 72 72 73 71 76 77 76 75 74 78
96 96 97 98 97 88 80 91 90 89 88 88 89 90 89 83 85 85 83 81 78 73 73 72 68 72 72 75 73 77 81 85
97 95 94 93 94 93 91 83 76 77 75 74 79 84 86 84 86 85 83 82 78 73 71 68 64 59 59 71 80 86 90 89
97 95 93 91 92 94 96 92 80 75 70 78 79 87 86 83 82 81 84 81 76 71 61 60 56 56 49 57 71 82 93 94
96 94 93 92 88 79 93 88 74 78 75 82 79 79 76 80 85 83 78 74 73 68 70 62 58 53 45 46 60 78 92 93
97 92 92 91 84 91 92 87 88 87 74 78 77 74 77 86 83 77 69 70 68 71 69 60 53 45 41 43 48 66 71 78
97 94 93 86 81 89 90 89 93 88 74 76 74 76 78 74 77 73 72 75 69 69 64 60 56 43 41 41 48 54 57 63
96 95 91 91 90 89 88 82 71 73 78 78 78 74 78 78 82 86 78 77 72 70 67 64 58 45 41 43 45 47 56 61
94 91 92 91 91 92 89 87 80 56 62 78 78 74 84 88 89 85 80 79 76 73 68 62 61 53 50 48 50 45 42 55
97 95 91 89 89 89 78 75 70 57 52 62 73 69 82 87 91 90 79 72 76 67 68 65 63 59 51 54 54 51 44 45
88 92 93 88 77 75 72 75 68 62 55 64 66 76 77 89 93 91 79 75 76 74 70 69 63 60 40 47 59 59 54 58
83 85 81 75 70 71 69 70 67 62 61 77 78 83 83 90 95 93 81 75 75 76 70 58 62 65 64 70 74 73 60 58
85 82 79 68 62 58 60 63 63 58 57 73 79 82 82 88 93 93 84 86 80 78 68 68 59 70 65 79 75 70 68 61
84 80 73 71 66 63 66 70 64 61 56 71 84 83 75 87 93 92 89 81 83 92 74 64 64 74 67 68 77 73 78 73
77 75 72 71 70 66 66 68 68 62 59 65 79 84 87 87 89 90 90 93 91 82 70 72 71 70 71 64 64 61 59 61
75 71 68 66 69 68 70 77 75 76 81 84 86 93 92 92 92 94 93 92 94 86 83 80 81 78 73 77 70 65 66 64
69 72 67 65 68 73 81 82 74 85 84 84 85 87 92 93 91 93 92 93 94 89 85 84 82 81 75 78 78 75 72 73
62 64 66 63 63 67 76 83 78 82 76 79 86 91 97 95 92 95 93 90 92 91 87 87 86 85 88 90 80 82 61 64
60 64 68 64 65 70 73 73 77 79 73 80 86 86 89 92 92 89 93 92 91 86 87 87 84 86 83 84 81 68 65 62

GFSFLT2_sfc_rhum_051.txt.gz
RH
92 93 87 92 96 90 83 87 84 86 84 84 84 84 82 82 81 78 74 74 71 71 73 75 78 77 77 79 79 75 80 76
98 98 96 98 95 91 81 89 85 85 88 91 89 87 85 83 80 77 74 74 74 72 74 78 80 81 78 79 80 76 83 83
98 97 96 97 96 93 82 92 94 94 95 94 91 88 86 84 82 79 77 77 76 73 73 76 81 80 80 80 75 84 87 88
97 96 95 94 92 94 90 86 91 92 89 92 92 94 88 82 82 81 79 77 76 75 72 68 61 71 78 76 86 88 91 91
98 97 93 92 92 91 94 95 98 96 91 86 89 91 88 87 80 82 83 78 72 64 66 58 52 66 74 83 85 93 96 94
97 94 92 92 81 84 91 92 91 94 90 84 88 87 88 93 87 88 86 80 73 73 72 64 55 52 64 75 85 93 98 98
97 93 92 84 80 80 86 90 80 86 79 79 76 77 79 86 85 82 80 77 71 76 67 61 53 48 51 64 73 85 88 93
97 96 92 87 78 78 91 88 87 88 73 73 74 72 78 75 81 80 78 72 76 72 66 61 51 45 48 53 64 66 70 78
98 94 93 88 88 93 88 91 79 79 75 74 80 77 78 76 81 86 80 75 75 72 68 68 57 46 46 52 57 60 60 61
94 95 94 95 94 94 93 91 84 72 75 78 73 74 84 90 83 84 81 82 78 76 76 74 64 52 52 52 54 53 58 64
97 97 93 94 94 94 85 72 71 68 76 74 78 73 82 84 91 92 85 85 84 76 77 70 66 59 53 55 58 54 50 56
93 96 94 92 84 89 90 93 64 58 61 79 78 77 86 91 94 94 87 85 87 80 74 73 67 63 42 50 60 61 57 62
93 96 93 89 87 88 93 91 79 60 59 70 72 76 85 92 95 93 85 79 78 75 75 70 70 68 65 70 73 70 65 60
86 87 82 80 84 75 79 83 81 58 60 67 74 80 82 91 94 94 87 85 84 82 72 70 65 71 64 77 72 70 72 65
82 84 76 71 65 62 66 77 74 71 62 68 71 83 82 88 93 94 94 89 85 90 80 67 64 72 72 68 76 76 71 69
89 85 81 75 70 65 69 64 67 65 68 65 70 81 88 83 90 93 95 93 90 88 89 81 75 72 77 70 63 62 62 63
88 83 80 75 79 76 79 79 79 79 76 77 82 82 91 86 90 93 94 94 90 92 92 90 88 84 76 85 73 71 80 72
89 84 80 74 77 80 82 78 78 84 90 85 82 82 87 92 92 94 94 94 95 92 91 90 85 84 75 80 83 84 85 72
85 84 80 75 76 76 79 78 81 85 86 85 84 84 87 87 95 96 96 94 97 97 95 90 90 85 80 82 81 77 73 71
75 78 78 74 74 74 73 75 78 82 79 83 84 82 80 87 94 94 94 94 96 96 94 95 92 80 83 82 84 82 70 63

GFSFLT2_sfc_rhum_057.txt.gz
RH
95 96 86 89 93 89 89 87 85 83 80 79 80 81 81 79 76 78 81 80 84 81 80 80 79 79 80 82 82 73 48 47
93 98 98 97 91 91 91 88 86 84 82 81 83 83 82 80 79 83 86 85 83 80 80 80 80 81 82 82 83 75 49 47
98 98 99 99 97 94 88 94 87 86 85 87 81 68 65 61 68 82 85 84 81 80 81 82 82 82 82 82 73 48 49 47
98 99 98 98 98 95 96 90 81 85 80 78 70 72 61 55 68 81 84 84 82 82 83 83 67 51 58 68 48 53 49 49
94 97 96 92 93 94 96 96 94 86 85 76 73 65 69 66 60 56 65 74 60 67 66 50 57 52 50 51 55 54 50 48
95 92 88 84 76 81 95 95 96 90 88 79 72 69 71 66 57 53 55 54 62 63 57 66 61 56 56 59 57 52 51 50
95 88 85 81 78 77 95 97 96 95 88 77 70 70 70 60 58 50 46 49 52 58 57 56 58 57 57 58 59 60 60 52
95 90 88 81 76 78 89 96 97 96 85 82 73 72 72 58 55 51 52 46 44 48 54 53 53 55 61 59 59 59 61 61
96 96 86 85 74 83 79 89 93 95 83 77 72 68 74 65 53 56 53 50 48 48 50 50 48 48 54 55 57 62 59 62
95 94 92 91 84 87 82 81 85 89 82 79 69 61 70 70 56 54 54 52 46 43 39 38 39 39 45 45 47 48 51 54
97 95 94 85 84 90 84 81 74 76 83 81 76 66 68 59 57 65 61 55 53 47 46 43 43 40 38 41 43 42 46 38
94 96 92 88 91 94 96 92 79 75 79 68 69 60 61 69 69 67 58 58 58 54 56 53 45 40 28 40 47 45 45 46
89 97 95 95 95 96 96 96 90 78 65 69 73 62 64 70 73 71 63 62 67 64 58 60 54 50 42 44 42 47 48 39
83 96 96 93 91 90 90 88 94 82 70 69 68 66 61 70 72 77 73 70 76 72 65 64 53 52 46 46 48 44 43 44
83 90 91 90 89 94 95 94 93 90 80 73 68 74 71 68 72 80 84 82 75 84 74 66 60 57 54 48 54 55 48 50
79 80 88 88 88 87 92 82 84 74 80 71 72 76 77 75 82 88 92 91 83 84 75 73 68 64 61 55 59 50 49 54
76 79 84 82 82 78 84 82 85 75 78 78 67 68 75 74 79 79 88 89 83 81 80 79 76 70 63 67 64 74 76 61
79 78 76 76 79 77 81 84 83 86 86 83 80 79 82 85 81 86 80 81 81 81 80 78 76 73 68 75 79 82 74 68
80 76 77 72 73 71 76 75 79 83 78 76 76 78 75 77 78 82 76 75 74 76 81 82 82 81 76 73 82 83 83 73
82 76 74 74 72 70 70 69 69 66 68 63 66 66 61 62 73 73 73 71 72 76 79 82 83 86 83 89 94 94 86 71

GFSFLT2_sfc_rhum_063.txt.gz
RH
78 78 90 95 96 97 92 91 87 86 85 83 83 82 80 80 78 79 80 82 84 84 83 82 80 78 78 75 72 70 32 34
84 84 93 88 94 95 97 96 89 87 86 85 86 84 84 83 82 82 84 85 85 83 83 83 80 80 79 75 70 64 31 33
82 83 84 87 87 96 96 93 93 87 87 90 85 56 67 69 73 85 84 85 84 84 83 84 84 82 77 74 76 29 31 33
86 86 88 83 86 88 94 96 93 85 72 66 48 61 58 52 76 86 85 85 85 86 86 85 69 42 44 66 38 33 32 38
84 83 78 84 91 93 96 100 96 87 79 63 56 66 63 68 76 69 70 71 55 60 62 42 38 35 40 38 38 36 34 39
70 68 69 76 90 98 98 98 99 95 90 77 81 75 66 60 70 60 57 50 55 49 44 41 38 36 36 43 40 34 34 41
80 72 74 71 81 85 96 96 98 95 94 87 79 76 61 59 67 61 51 49 51 46 41 37 37 36 38 40 38 37 39 40
76 75 73 75 81 84 89 96 93 94 92 94 89 67 69 63 69 58 50 46 43 41 38 38 35 35 39 39 39 39 38 43
77 83 84 84 82 89 96 98 96 93 91 92 85 68 69 58 51 50 46 42 45 39 40 38 33 32 38 38 38 41 39 40
83 80 86 80 77 83 89 99 96 94 94 92 70 61 62 60 48 45 41 43 40 37 37 35 33 33 37 36 36 38 42 42
83 85 82 82 77 83 89 97 95 94 94 87 63 56 58 58 48 45 44 43 44 39 40 39 37 33 33 34 35 35 40 36
82 87 83 84 86 91 88 95 95 92 93 75 62 57 57 60 51 54 44 46 51 44 43 37 36 31 24 30 35 33 35 36
85 90 90 89 92 88 93 95 96 95 91 71 59 53 50 53 52 61 59 53 52 56 42 44 36 35 29 31 34 36 38 34
86 93 91 90 84 82 76 85 93 89 92 87 62 55 49 52 53 58 58 50 56 56 58 47 40 38 33 36 43 40 38 39
66 88 91 92 87 85 85 91 91 93 95 93 77 69 47 53 61 60 61 57 65 64 60 56 49 45 48 46 47 44 45 41
58 68 86 84 83 81 84 73 82 71 78 87 82 78 58 56 71 75 65 59 64 66 56 60 60 58 54 49 54 55 67 63
54 66 71 78 80 80 79 74 70 70 69 76 72 69 67 69 69 74 79 66 67 75 71 69 61 76 68 59 59 56 60 67
54 61 66 76 84 84 80 77 71 81 79 79 68 64 66 71 71 74 79 80 75 73 73 74 74 67 76 62 64 57 55 57
52 55 65 74 85 83 80 77 74 74 74 75 75 66 67 68 72 73 73 80 73 69 76 74 71 74 71 70 63 63 54 53
47 53 56 71 84 84 82 76 72 65 70 68 72 68 63 68 71 68 65 65 74 72 66 64 66 70 72 70 68 64 59 58

GFSFLT2_sfc_rhum_069.txt.gz
RH
92 93 95 93 94 94 95 94 93 96 82 85 88 86 84 82 81 81 85 85 85 84 81 82 79 78 72 75 71 71 65 68
94 98 96 97 96 93 94 95 92 93 95 88 90 85 84 84 85 85 85 86 84 82 83 80 79 74 70 75 72 71 64 71
95 98 97 98 96 94 91 90 91 90 90 93 97 78 82 83 85 87 87 86 85 85 84 80 77 72 74 74 68 60 65 70
96 96 98 97 96 97 97 96 96 92 92 94 91 80 80 84 88 89 89 88 88 86 84 81 72 70 68 69 55 62 66 70
96 96 96 95 97 99 100 100 98 96 94 98 91 81 92 92 91 88 90 89 86 82 79 69 63 66 64 66 58 64 67 68
94 95 96 97 96 99 99 99 99 96 96 95 94 94 91 91 90 90 87 84 87 86 77 66 61 61 60 66 60 65 68 72
93 93 92 94 97 98 99 98 99 96 96 93 94 90 88 82 87 83 77 79 82 80 74 63 57 60 62 59 62 66 67 70
91 86 85 95 98 98 99 99 98 99 98 97 90 90 87 75 79 74 74 69 67 69 72 63 60 63 66 58 62 66 66 72
94 90 86 89 94 98 99 99 97 98 98 96 88 88 84 73 73 75 76 72 61 71 72 66 65 63 63 61 61 66 66 71
90 86 93 92 96 97 99 98 98 96 98 97 92 83 78 81 75 68 71 67 65 69 73 61 68 66 70 66 60 67 69 69
91 91 94 95 96 97 98 98 97 96 97 95 93 83 80 80 80 76 68 69 79 68 66 60 62 68 66 69 70 67 71 64
90 91 93 94 96 97 98 98 98 96 95 94 90 83 80 82 81 86 91 77 87 66 58 71 63 62 47 58 72 74 69 72
90 94 94 95 97 98 98 97 98 97 94 92 92 84 77 76 78 87 82 82 84 64 64 66 70 65 66 74 74 74 71 72
90 95 96 94 90 91 90 94 96 93 93 93 87 84 72 73 79 82 70 85 89 78 64 69 62 65 64 67 67 60 64 68
93 92 92 92 90 92 94 96 98 97 95 93 86 83 66 65 73 78 77 76 83 74 66 60 64 64 57 62 70 67 69 70
95 89 88 87 90 90 93 92 95 89 88 84 74 79 75 68 70 68 72 82 83 82 75 71 75 62 67 64 72 78 84 86
96 92 88 84 88 87 88 82 81 80 82 77 77 82 78 75 78 82 82 84 88 87 87 82 78 86 70 78 79 83 90 92
97 92 89 85 87 87 86 83 84 87 91 86 87 89 86 84 75 86 86 86 90 91 89 87 90 89 80 81 84 87 91 95
96 96 89 88 87 86 85 88 85 82 85 89 88 86 80 83 86 88 91 90 89 91 90 90 90 92 95 94 91 90 88 88
89 93 93 85 88 84 80 75 83 80 77 81 80 79 76 70 90 89 85 85 89 91 92 94 93 94 95 97 94 82 85 86

GFSFLT2_sfc_rhum_072.txt.gz
RH
95 94 94 94 94 94 93 86 92 95 92 88 82 88 84 85 85 84 83 85 85 84 83 81 78 78 78 79 80 78 71 70
97 97 97 98 98 96 97 94 96 95 96 94 94 91 88 86 87 86 85 85 86 85 83 80 78 79 79 81 80 78 78 81
98 99 97 97 97 96 95 95 92 97 94 92 96 96 87 85 85 87 87 87 86 85 82 81 80 77 79 79 74 70 73 77
98 99 99 97 93 96 98 95 93 91 91 92 93 97 91 82 88 88 89 88 88 86 83 82 72 68 69 73 69 69 73 78
98 99 99 96 97 98 99 100 99 98 94 94 95 96 96 91 91 88 89 89 88 83 79 69 70 70 64 69 69 70 74 75
98 98 98 98 99 99 99 98 99 98 97 93 96 96 96 90 87 90 86 84 90 86 80 74 71 67 63 69 71 72 78 76
98 98 96 95 98 99 99 100 98 97 95 96 96 92 88 84 86 91 87 86 81 84 76 70 66 64 65 66 73 75 77 79
97 98 93 90 98 99 98 98 98 96 96 93 97 86 84 85 87 93 89 82 78 71 75 67 65 66 64 67 71 72 75 78
95 96 92 94 98 99 99 99 98 97 92 92 97 87 89 89 86 85 82 77 77 81 82 68 66 69 64 68 71 72 75 77
95 90 96 98 98 99 99 99 99 99 96 93 95 85 80 83 79 78 70 72 66 72 83 76 71 76 72 70 72 73 73 76
96 90 93 98 98 98 97 98 98 99 98 97 95 80 77 75 78 79 72 67 68 73 86 78 78 79 72 69 73 80 77 70
91 93 94 98 98 99 98 99 99 99 98 96 95 84 72 76 74 84 80 66 73 75 82 79 73 76 57 71 74 78 82 80
93 96 96 97 98 97 99 98 99 99 97 94 94 90 78 71 68 86 74 80 76 70 76 67 73 76 76 82 81 82 79 80
95 95 96 96 89 90 91 94 98 94 96 96 93 88 81 72 67 82 77 80 89 81 76 74 71 70 66 73 81 72 76 78
95 96 94 94 94 95 98 97 99 99 98 98 98 94 83 82 74 77 83 80 85 84 76 67 74 76 62 70 74 75 71 70
96 96 94 91 93 90 95 90 95 90 92 93 94 94 89 83 84 80 83 85 89 89 81 69 71 65 74 65 66 70 79 77
96 95 95 94 91 89 92 92 87 92 91 91 91 94 90 86 86 83 87 90 92 88 88 80 79 83 73 78 75 84 89 89
96 96 95 94 90 90 88 90 88 91 92 93 91 86 89 82 84 85 88 87 91 90 89 85 83 79 76 77 81 85 91 94
89 94 95 96 93 91 86 82 82 86 88 86 86 89 85 74 80 89 86 84 87 81 84 87 89 89 87 89 92 86 88 89
86 86 84 90 90 90 85 81 80 85 91 87 82 81 78 74 79 81 86 80 78 89 87 89 94 95 93 95 95 94 94 92

GFSFLT2_sfc_rhum_078.txt.gz
RH
99 93 93 97 98 96 93 94 92 93 91 88 94 85 88 82 84 82 83 85 90 90 89 88 87 87 87 86 84 81 76 75
98 95 95 96 97 98 97 94 93 94 93 93 92 90 85 81 89 84 82 89 90 89 87 87 87 87 86 84 82 78 69 73
99 100 99 97 96 96 98 94 94 93 92 90 92 92 94 88 92 88 87 90 90 85 85 88 88 87 86 84 76 73 69 74
99 99 99 99 99 99 99 95 95 94 92 91 90 92 92 89 89 93 87 90 87 84 88 89 86 85 82 79 74 76 74 80
98 97 99 97 98 99 99 98 98 96 94 92 93 94 93 94 95 95 93 89 83 82 89 83 86 84 87 84 79 79 82 79
96 96 98 97 99 99 99 99 98 98 95 95 97 96 95 94 97 96 96 90 86 91 85 86 84 81 83 81 82 84 86 83
92 97 97 96 98 99 99 99 98 96 97 93 96 95 96 95 97 97 95 93 86 88 81 82 82 78 82 80 80 85 87 86
95 97 94 97 98 98 98 99 99 98 97 95 94 94 96 96 97 97 97 92 85 79 75 76 76 78 82 78 80 86 87 87
96 97 96 99 98 98 97 98 98 98 98 95 94 93 95 92 94 96 96 87 82 80 78 76 77 75 79 79 82 84 87 88
90 85 98 99 99 97 97 98 95 96 97 96 94 91 93 94 94 95 93 86 78 74 75 79 80 83 85 83 81 83 83 87
94 92 97 99 99 96 96 98 98 98 97 97 95 89 87 94 95 95 90 83 79 74 77 76 81 82 84 85 90 86 83 80
93 95 98 98 94 96 99 99 98 98 98 96 94 93 91 98 96 95 89 80 83 76 76 86 86 84 74 87 94 91 87 87
94 96 98 94 96 97 99 99 99 99 99 95 95 91 92 96 94 91 86 82 78 76 77 83 94 90 91 94 95 94 91 91
96 97 95 94 94 96 92 96 99 99 99 98 97 96 95 93 89 86 77 78 84 81 71 84 90 84 92 93 96 92 93 89
93 94 92 97 93 96 99 98 99 100 99 99 98 97 95 94 89 84 72 73 78 77 75 77 84 87 79 86 96 96 95 93
95 97 90 86 88 90 97 96 98 96 99 99 98 97 96 91 88 82 73 74 80 78 74 70 78 80 82 74 75 81 94 93
97 98 92 88 88 86 97 96 94 96 99 99 99 98 94 92 92 85 82 83 85 86 90 84 80 79 81 81 79 85 84 90
95 89 88 88 91 85 96 93 94 99 99 99 99 99 98 93 93 94 94 92 91 91 91 86 86 84 74 80 83 85 83 86
82 85 86 84 93 90 91 95 94 96 96 97 98 98 98 98 94 95 91 88 94 94 93 90 90 89 88 86 84 82 84 81
87 89 86 90 88 93 96 96 97 97 96 95 94 95 96 98 95 94 89 96 96 94 95 97 96 97 95 92 89 85 87 88